Hourly Data Report for June 28, 2021

OTTAWA INTL A
ONTARIO
Current Station Operator: NAVCAN

45°19'00.000" N
75°40'00.000" W
114.90 m
6106001
71628
YOW

Download Data

Hourly Data (June 2021)
Hourly Data Report for June 28, 2021
TIME
LST
Temp Definition
°C
Dew Point Definition
°C
Rel Hum Definition
%
Precip. Amount Definition
mm

Wind Dir Definition
10's deg

Wind Spd Definition
km/h
Visibility Definition
km
Stn Press Definition
kPa
Hmdx Definition


Wind Chill Definition


Weather Definition


00:00 23.5 22.1 91   30 12 16.1 100.13 33   LegendNANA
01:00 22.9 22.2 95   27 13 16.1 100.16 32   Cloudy
02:00 22.8 21.9 95   23 9 24.1 100.18 32   LegendNANA
03:00 22.7 21.2 91   22 11 24.1 100.21 31   Rain Showers
04:00 22.1 21.2 95   23 7 24.1 100.30 31   Mostly Cloudy
05:00 22.1 21.3 95   23 7 24.1 100.32 31   LegendNANA
06:00 22.7 21.6 93   23 5 24.1 100.36 32   LegendNANA
07:00 23.5 21.7 90   23 11 24.1 100.43 33   Mostly Cloudy
08:00 24.3 22.0 87   28 13 24.1 100.47 34   LegendNANA
09:00 25.6 21.5 77   25 10 24.1 100.46 34   LegendNANA
10:00 26.2 21.7 76   27 10 24.1 100.45 35   Mostly Cloudy
11:00 28.7 22.2 68   26 14 24.1 100.45 38   LegendNANA
12:00 29.0 21.3 63   30 22 24.1 100.45 38   LegendNANA
13:00 30.5 19.8 52   26 21 24.1 100.40 38   Mainly Clear
14:00 30.8 19.3 50   29 16 24.1 100.37 38   LegendNANA
15:00 30.9 20.2 52   29 15 24.1 100.38 39   LegendNANA
16:00 31.8 19.6 48   28 19 24.1 100.36 39   Mainly Clear
17:00 31.5 19.9 50   28 13 24.1 100.35 39   LegendNANA
18:00 30.8 19.6 51   28 18 24.1 100.35 38   LegendNANA
19:00 29.4 19.9 56   28 11 24.1 100.38 37   Mainly Clear
20:00 27.7 18.9 58   28 17 24.1 100.43 34   LegendNANA
21:00 24.6 18.6 69   26 8 24.1 100.50 31   LegendNANA
22:00 24.2 18.8 71   26 12 24.1 100.53 31   Clear
23:00 23.2 19.1 77   27 9 24.1 100.58 30   LegendNANA

Notes on Data Quality.

Legend

  • E = Estimated
  • M = Missing
  • NA = Not Available*
  • [empty] = Indicates an unobserved value
Date modified: